International Skating Union - Official Site

Essent ISU World Cup Inzell
March 7-9, 2014

Draw | Lap Times | Index | World Cup

Referee: Erik  ØSMUNDSET  (NOR)
Starter: Sebastian  ZAMANI  (SWE)
StartTime: EndTime: Air Temp: Ice Temp: Humidity:
12:00 12:32 11.3℃ -7℃ 35%
Result 5000m Men Division B
Rankings as of Mar 7 2014 3:32PM
Rank: No.: Name: Nation: Time: Behind: Points:
1 160 Frank  Vreugdenhil NED NED 6:24.90200m - 19.50 - (19.5)
600m - 49.57 - (30.0)
1000m - 1:20.18 - (30.6)
1400m - 1:50.49 - (30.3)
1800m - 2:20.85 - (30.3)
2200m - 2:51.44 - (30.5)
2600m - 3:22.03 - (30.5)
3000m - 3:52.75 - (30.7)
3400m - 4:23.50 - (30.7)
3800m - 4:54.05 - (30.5)
4200m - 5:24.49 - (30.4)
4600m - 5:54.63 - (30.1)
5000m - 6:24.90 - (30.2)
32
2 130 Andrea  Giovannini ITA ITA 6:30.01200m - 18.95 - (18.9)
600m - 49.14 - (30.1)
1000m - 1:19.75 - (30.6)
1400m - 1:50.56 - (30.8)
1800m - 2:21.36 - (30.8)
2200m - 2:52.36 - (31.0)
2600m - 3:23.47 - (31.1)
3000m - 3:54.75 - (31.2)
3400m - 4:25.74 - (30.9)
3800m - 4:56.88 - (31.1)
4200m - 5:27.77 - (30.8)
4600m - 5:58.90 - (31.1)
5000m - 6:30.01 - (31.1)
5.11 27
3 162 Fredrik  van der Horst NOR NOR 6:30.34200m - 19.16 - (19.1)
600m - 49.00 - (29.8)
1000m - 1:19.29 - (30.2)
1400m - 1:49.69 - (30.3)
1800m - 2:20.49 - (30.8)
2200m - 2:51.16 - (30.6)
2600m - 3:22.04 - (30.8)
3000m - 3:52.93 - (30.8)
3400m - 4:23.86 - (30.9)
3800m - 4:55.14 - (31.2)
4200m - 5:26.81 - (31.6)
4600m - 5:58.48 - (31.6)
5000m - 6:30.34 - (31.8)
5.44 23
4 174 Sergey  Gryaztsov RUS RUS 6:31.51200m - 18.89 - (18.8)
600m - 49.02 - (30.1)
1000m - 1:19.39 - (30.3)
1400m - 1:50.11 - (30.7)
1800m - 2:20.81 - (30.7)
2200m - 2:51.56 - (30.7)
2600m - 3:22.27 - (30.7)
3000m - 3:53.34 - (31.0)
3400m - 4:24.33 - (30.9)
3800m - 4:55.59 - (31.2)
4200m - 5:27.19 - (31.6)
4600m - 5:59.12 - (31.9)
5000m - 6:31.51 - (32.3)
6.61 19
5 170 Piotr  Puszkarski POL POL 6:34.26200m - 19.14 - (19.1)
600m - 49.20 - (30.0)
1000m - 1:19.61 - (30.4)
1400m - 1:50.38 - (30.7)
1800m - 2:21.18 - (30.8)
2200m - 2:52.27 - (31.0)
2600m - 3:23.11 - (30.8)
3000m - 3:54.17 - (31.0)
3400m - 4:25.22 - (31.0)
3800m - 4:56.72 - (31.5)
4200m - 5:28.82 - (32.0)
4600m - 6:01.31 - (32.4)
5000m - 6:34.26 - (32.9)
9.36 15
6 125 Felix  Rijhnen GER GER 6:34.53200m - 19.74 - (19.7)
600m - 50.38 - (30.6)
1000m - 1:21.25 - (30.8)
1400m - 1:52.61 - (31.3)
1800m - 2:24.04 - (31.4)
2200m - 2:55.29 - (31.2)
2600m - 3:26.71 - (31.4)
3000m - 3:58.10 - (31.3)
3400m - 4:29.40 - (31.2)
3800m - 5:00.52 - (31.1)
4200m - 5:31.68 - (31.1)
4600m - 6:02.96 - (31.2)
5000m - 6:34.53 - (31.5)
9.63 11
7 185 Martin  Hänggi SUI SUI 6:39.43200m - 19.95 - (19.9)
600m - 50.90 - (30.9)
1000m - 1:22.45 - (31.5)
1400m - 1:54.19 - (31.7)
1800m - 2:25.94 - (31.7)
2200m - 2:57.94 - (32.0)
2600m - 3:29.53 - (31.5)
3000m - 4:00.90 - (31.3)
3400m - 4:32.14 - (31.2)
3800m - 5:03.62 - (31.4)
4200m - 5:35.15 - (31.5)
4600m - 6:07.03 - (31.8)
5000m - 6:39.37 - (32.3)
14.53 9
8 167 Sebastian  Druszkiewicz POL POL 6:40.02200m - 20.02 - (20.0)
600m - 51.11 - (31.0)
1000m - 1:22.38 - (31.2)
1400m - 1:53.20 - (30.8)
1800m - 2:24.23 - (31.0)
2200m - 2:55.23 - (31.0)
2600m - 3:26.73 - (31.5)
3000m - 3:58.19 - (31.4)
3400m - 4:30.06 - (31.8)
3800m - 5:02.15 - (32.0)
4200m - 5:34.76 - (32.6)
4600m - 6:07.34 - (32.5)
5000m - 6:40.02 - (32.6)
15.12 7
9 123 Felix  Maly GER GER 6:40.83200m - 19.85 - (19.8)
600m - 51.19 - (31.3)
1000m - 1:22.64 - (31.4)
1400m - 1:53.48 - (30.8)
1800m - 2:24.41 - (30.9)
2200m - 2:55.86 - (31.4)
2600m - 3:27.47 - (31.6)
3000m - 3:59.13 - (31.6)
3400m - 4:30.97 - (31.8)
3800m - 5:02.95 - (31.9)
4200m - 5:35.14 - (32.1)
4600m - 6:08.09 - (32.9)
5000m - 6:40.83 - (32.7)
15.93 6
10 129 Marco  Cignini ITA ITA 6:44.14200m - 19.55 - (19.5)
600m - 51.21 - (31.6)
1000m - 1:22.37 - (31.1)
1400m - 1:53.44 - (31.0)
1800m - 2:24.37 - (30.9)
2200m - 2:55.63 - (31.2)
2600m - 3:26.97 - (31.3)
3000m - 3:58.99 - (32.0)
3400m - 4:31.23 - (32.2)
3800m - 5:03.80 - (32.5)
4200m - 5:36.90 - (33.0)
4600m - 6:10.50 - (33.6)
5000m - 6:44.14 - (33.6)
19.24 5
11 105 Maarten  Swings BEL BEL 6:45.25200m - 20.11 - (20.1)
600m - 51.56 - (31.4)
1000m - 1:23.40 - (31.8)
1400m - 1:55.56 - (32.1)
1800m - 2:27.78 - (32.2)
2200m - 3:00.00 - (32.2)
2600m - 3:32.28 - (32.2)
3000m - 4:04.37 - (32.0)
3400m - 4:36.21 - (31.8)
3800m - 5:07.76 - (31.5)
4200m - 5:39.70 - (31.9)
4600m - 6:12.16 - (32.4)
5000m - 6:45.25 - (33.0)
20.35 4
12 102 Robert  Binna AUT AUT 6:51.27200m - 20.14 - (20.1)
600m - 52.03 - (31.8)
1000m - 1:23.33 - (31.3)
1400m - 1:54.74 - (31.4)
1800m - 2:26.50 - (31.7)
2200m - 2:58.46 - (31.9)
2600m - 3:33.97 - (35.5)
3000m - 4:03.68 - (29.7)
3400m - 4:36.71 - (33.0)
3800m - 5:10.17 - (33.4)
4200m - 5:43.88 - (33.7)
4600m - 6:17.70 - (33.8)
5000m - 6:51.27 - (33.5)
26.37 3
13 186 Livio  Wenger SUI SUI 6:56.30200m - 19.42 - (19.4)
600m - 50.60 - (31.1)
1000m - 1:22.54 - (31.9)
1400m - 1:55.23 - (32.6)
1800m - 2:28.16 - (32.9)
2200m - 3:00.82 - (32.6)
2600m - 3:33.70 - (32.8)
3000m - 4:06.42 - (32.7)
3400m - 4:39.60 - (33.1)
3800m - 5:13.07 - (33.4)
4200m - 5:46.86 - (33.7)
4600m - 6:21.24 - (34.3)
5000m - 6:56.30 - (35.0)
31.40 2
14 135 Shota  Nakamura JPN JPN 6:57.58200m - 19.85 - (19.8)
600m - 51.84 - (31.9)
1000m - 1:24.15 - (32.3)
1400m - 1:56.73 - (32.5)
1800m - 2:29.03 - (32.2)
2200m - 3:01.71 - (32.6)
2600m - 3:34.38 - (32.6)
3000m - 4:07.20 - (32.8)
3400m - 4:40.45 - (33.2)
3800m - 5:14.66 - (34.2)
4200m - 5:48.34 - (33.6)
4600m - 6:22.81 - (34.4)
5000m - 6:57.58 - (34.7)
32.68 1
15 110 Zdenek  Haselberger CZE CZE 7:02.10200m - 19.49 - (19.4)
600m - 50.61 - (31.1)
1000m - 1:22.47 - (31.8)
1400m - 1:54.74 - (32.2)
1800m - 2:27.03 - (32.2)
2200m - 2:59.87 - (32.8)
2600m - 3:33.46 - (33.5)
3000m - 4:07.97 - (34.5)
3400m - 4:42.28 - (34.3)
3800m - 5:17.17 - (34.8)
4200m - 5:52.94 - (35.7)
4600m - 6:27.70 - (34.7)
5000m - 7:02.10 - (34.4)
37.20 0